Weather History for Cincinnati, OH

Change the Weather History Date:

Saturday, January 19, 2013

  Actual Average Record
Temperature  
Mean Temperature 45 °F -  
Max Temperature 54 °F 37 °F 63 °F (1951)
Min Temperature 36 °F 20 °F -2 °F (1985)
Degree Days  
Heating Degree Days 20    
Moisture  
Dew Point 25 °F    
Average Humidity 46    
Maximum Humidity 60    
Minimum Humidity 32    
Precipitation  
Precipitation 0.00 in - - ()
Sea Level Pressure  
Sea Level Pressure 30.11 in    
Wind  
Wind Speed 14 mph (SSW)    
Max Wind Speed 24 mph    
Max Gust Speed 34 mph    
Visibility 10 miles    
Events      
Averages and records for this station are not official NWS values.
T = Trace of Precipitation, MM = Missing Value Source: NWS Daily Summary

Daily Weather History Graph

Daily Weather History Graph

Search for Another Location

Airport:

Trip Planner

Search our weather history database for the weather conditions in past years. The results will help you decide how hot, cold, wet, or windy it might be!

Date:

Astronomy

Jan. 19, 2013 Rise Set
Actual Time 7:53 AM EST 5:44 PM EST
Civil Twilight 7:24 AM EST 6:13 PM EST
Nautical Twilight 6:51 AM EST 6:45 PM EST
Astronomical Twilight 6:19 AM EST 7:17 PM EST
Moon 12:09 PM EST (1/19) 1:27 AM EST (1/19)
Length of Visible Light 10h 48m
Length of Day
9h 50m
First Quarter, 57% of the Moon is Illuminated
Jan 19
First Quarter
Jan 26
Full
Feb 3
Last Quarter
Feb 10
New
Feb 17
First Quarter

Hourly Weather History & Observations

Time (EST) Temp. Windchill Dew Point Humidity Pressure Visibility Wind Dir Wind Speed Gust Speed Precip Events Conditions
12:53 AM 36.0 °F 29.0 °F 23.0 °F 59% 30.27 in 10.0 mi SSW 9.2 mph - N/A   Clear
1:53 AM 37.9 °F 30.5 °F 23.0 °F 55% 30.26 in 10.0 mi SSW 11.5 mph - N/A   Clear
2:53 AM 37.0 °F 29.3 °F 24.1 °F 59% 30.26 in 10.0 mi SSW 11.5 mph - N/A   Clear
3:53 AM 39.0 °F 31.0 °F 24.1 °F 55% 30.25 in 10.0 mi SSW 13.8 mph - N/A   Clear
4:53 AM 37.9 °F 30.5 °F 24.1 °F 57% 30.24 in 10.0 mi SSW 11.5 mph - N/A   Clear
5:53 AM 39.0 °F 31.0 °F 24.1 °F 55% 30.23 in 10.0 mi SSW 13.8 mph - N/A   Clear
6:53 AM 37.9 °F 29.6 °F 25.0 °F 60% 30.23 in 10.0 mi SSW 13.8 mph - N/A   Clear
7:53 AM 37.9 °F 29.6 °F 25.0 °F 60% 30.22 in 10.0 mi SSW 13.8 mph 21.9 mph N/A   Clear
8:53 AM 41.0 °F 32.8 °F 25.0 °F 53% 30.23 in 10.0 mi SW 16.1 mph - N/A   Clear
9:53 AM 44.1 °F 36.8 °F 26.1 °F 49% 30.23 in 10.0 mi SW 16.1 mph 20.7 mph N/A   Clear
10:53 AM 48.0 °F - 26.1 °F 42% 30.21 in 10.0 mi SW 20.7 mph 28.8 mph N/A   Clear
11:53 AM 50.0 °F - 24.1 °F 36% 30.16 in 10.0 mi SSW 20.7 mph 31.1 mph N/A   Clear
12:53 PM 52.0 °F - 24.1 °F 34% 30.11 in 10.0 mi SW 24.2 mph 32.2 mph N/A   Clear
1:53 PM 53.1 °F - 24.1 °F 32% 30.06 in 10.0 mi SSW 21.9 mph 32.2 mph N/A   Clear
2:53 PM 54.0 °F - 25.0 °F 33% 30.03 in 10.0 mi SSW 17.3 mph 31.1 mph N/A   Clear
3:53 PM 54.0 °F - 26.1 °F 34% 30.01 in 10.0 mi SSW 20.7 mph 28.8 mph N/A   Clear
4:53 PM 53.1 °F - 24.1 °F 32% 29.98 in 10.0 mi SSW 18.4 mph 34.5 mph N/A   Clear
5:53 PM 51.1 °F - 24.1 °F 35% 29.96 in 10.0 mi SSW 19.6 mph 25.3 mph N/A   Clear
6:53 PM 48.9 °F - 26.1 °F 41% 29.96 in 10.0 mi SSW 16.1 mph 23.0 mph N/A   Clear
7:53 PM 48.9 °F - 26.1 °F 41% 29.98 in 10.0 mi SSW 16.1 mph - N/A   Clear
8:53 PM 48.9 °F - 27.0 °F 43% 29.98 in 10.0 mi SSW 13.8 mph 21.9 mph N/A   Clear
9:53 PM 48.0 °F - 28.0 °F 46% 29.96 in 10.0 mi SSW 19.6 mph 27.6 mph N/A   Clear
10:53 PM 46.9 °F - 28.0 °F 48% 29.97 in 10.0 mi SW 15.0 mph - N/A   Clear
11:53 PM 46.0 °F 39.9 °F 28.0 °F 50% 29.97 in 10.0 mi SW 13.8 mph - N/A   Clear